Location: Newark
(55.7083°N, 13.1992°E)
Time: 00:48:52
(UTC+00:00)

N. Korean satellite - Pass Details

Date: 01 February 2020
Orbit: 456 x 505 km, 97.2° (Epoch: 20 February)

Event Time Altitude Azimuth Distance (km) Brightness Sun altitude
Rises 04:14:24 0° 23° (NNE) 2,560 10.6 -23.5°
Reaches altitude 10° 04:16:46 10° 38° (NE) 1,683 9.8 -23.2°
Maximum altitude 04:19:44 23° 93° (E) 1,077 9.1 -22.7°
Drops below altitude 10° 04:22:43 10° 148° (SSE) 1,693 9.7 -22.3°
Sets 04:25:06 0° 163° (SSE) 2,579 10.4 -22.0°
